| time (UTC) | temp C | wind direction | speed KPH | gust KPH | rain 1hr cm | rain 24hr cm | rain mn cm | humidity % | barometer mb |
| 20260505184357 | 14 | 272 | 8.0 | 20.9 | 0.00 | 0.13 | 0.13 | 73 | 1015.5 |
| 20260505182150 | 15 | 257 | 11.3 | 22.5 | 0.00 | 0.13 | 0.13 | 71 | 1015.2 |
| 20260505180650 | 15 | 282 | 14.5 | 24.1 | 0.00 | 0.13 | 0.13 | 71 | 1015.2 |
| 20260505175151 | 15 | 299 | 11.3 | 24.1 | 0.00 | 0.13 | 0.13 | 71 | 1015.1 |
| 20260505173651 | 15 | 267 | 12.9 | 24.1 | 0.00 | 0.13 | 0.13 | 67 | 1015.2 |
| 20260505172840 | 15 | 248 | 9.7 | 17.7 | 0.00 | 0.13 | 0.13 | 72 | 1015.2 |
| 20260505170644 | 14 | 284 | 12.9 | 19.3 | 0.00 | 0.13 | 0.13 | 76 | 1015.4 |
| 20260505165144 | 14 | 259 | 11.3 | 19.3 | 0.00 | 0.13 | 0.13 | 75 | 1015.4 |
| 20260505163644 | 15 | 244 | 12.9 | 27.4 | 0.00 | 0.13 | 0.13 | 76 | 1015.4 |
| 20260505162144 | 14 | 272 | 14.5 | 24.1 | 0.00 | 0.13 | 0.13 | 76 | 1015.4 |
| 20260505161336 | 14 | 255 | 11.3 | 22.5 | 0.00 | 0.13 | 0.13 | 78 | 1015.2 |
| 20260505160537 | 15 | 244 | 16.1 | 27.4 | 0.00 | 0.13 | 0.13 | 77 | 1015.2 |
| 20260505152142 | 15 | 234 | 8.0 | 19.3 | 0.00 | 0.13 | 0.13 | 82 | 1015.2 |
| 20260505150641 | 14 | 234 | 4.8 | 11.3 | 0.03 | 0.13 | 0.13 | 83 | 1015.6 |
| 20260505123631 | 15 | 219 | 12.9 | 20.9 | 0.00 | 0.00 | 0.00 | 66 | 1015.8 |
| 20260505122132 | 15 | 238 | 11.3 | 20.9 | 0.00 | 0.00 | 0.00 | 70 | 1016.0 |
| 20260505120632 | 14 | 234 | 11.3 | 24.1 | 0.00 | 0.00 | 0.00 | 74 | 1016.2 |
| 20260505115130 | 14 | 240 | 9.7 | 19.3 | 0.00 | 0.00 | 0.00 | 73 | 1016.3 |
| 20260505113629 | 14 | 263 | 6.4 | 16.1 | 0.00 | 0.00 | 0.00 | 67 | 1016.4 |
| 20260505112130 | 14 | 300 | 8.0 | 17.7 | 0.00 | 0.00 | 0.00 | 69 | 1016.3 |
| 20260505110627 | 14 | 293 | 8.0 | 20.9 | 0.00 | 0.00 | 0.00 | 70 | 1016.4 |
| 20260505102128 | 13 | 244 | 8.0 | 14.5 | 0.00 | 0.00 | 0.00 | 75 | 1016.4 |
| 20260505100625 | 13 | 242 | 9.7 | 19.3 | 0.00 | 0.00 | 0.00 | 74 | 1016.4 |
| 20260505095125 | 13 | 244 | 4.8 | 11.3 | 0.00 | 0.00 | 0.00 | 77 | 1016.4 |
| 20260505093623 | 12 | 251 | 6.4 | 12.9 | 0.00 | 0.00 | 0.00 | 79 | 1016.4 |
| 20260505092120 | 12 | 198 | 4.8 | 12.9 | 0.00 | 0.00 | 0.00 | 80 | 1016.3 |
| 20260505090619 | 12 | 238 | 4.8 | 12.9 | 0.00 | 0.00 | 0.00 | 80 | 1016.4 |
| 20260505085120 | 12 | 259 | 1.6 | 9.7 | 0.00 | 0.00 | 0.00 | 81 | 1016.4 |
| 20260505083620 | 11 | 236 | 3.2 | 8.0 | 0.00 | 0.00 | 0.00 | 83 | 1016.4 |
| 20260505082119 | 11 | 194 | 1.6 | 4.8 | 0.00 | 0.00 | 0.00 | 84 | 1016.4 |
| 20260505080617 | 11 | 194 | 1.6 | 4.8 | 0.00 | 0.00 | 0.00 | 84 | 1016.4 |
| 20260505075115 | 11 | 109 | 0.0 | 3.2 | 0.00 | 0.00 | 0.00 | 84 | 1016.3 |
| 20260505073615 | 11 | 109 | 1.6 | 4.8 | 0.00 | 0.00 | 0.00 | 86 | 1016.3 |
| 20260505072115 | 10 | 110 | 0.0 | 3.2 | 0.00 | 0.00 | 0.00 | 86 | 1016.3 |
| 20260505070616 | 10 | 110 | 1.6 | 4.8 | 0.00 | 0.00 | 0.00 | 85 | 1016.2 |
| 20260505065115 | 10 | 110 | 1.6 | 4.8 | 0.00 | 0.00 | 0.00 | 85 | 1016.0 |
| 20260505063615 | 9 | 110 | 4.8 | 6.4 | 0.00 | 0.00 | 0.00 | 86 | 1015.9 |
| 20260505062115 | 10 | 228 | 1.6 | 4.8 | 0.00 | 0.00 | 0.00 | 84 | 1016.0 |
| 20260505060612 | 9 | 228 | 0.0 | 1.6 | 0.00 | 0.00 | 0.00 | 84 | 1015.8 |
| 20260505055111 | 8 | 228 | 1.6 | 3.2 | 0.00 | 0.00 | 0.00 | 84 | 1015.9 |
| 20260505054321 | 9 | 228 | 0.0 | 3.2 | 0.00 | 0.00 | 0.00 | 83 | 1015.9 |
| 20260505052109 | 9 | 228 | 0.0 | 1.6 | 0.00 | 0.00 | 0.00 | 84 | 1015.9 |
| 20260505050609 | 9 | 228 | 1.6 | 6.4 | 0.00 | 0.00 | 0.00 | 84 | 1015.9 |
| 20260505040603 | 9 | 228 | 0.0 | 0.0 | 0.00 | 0.00 | 0.00 | 86 | 1016.0 |
| 20260505035801 | 9 | 228 | 0.0 | 3.2 | 0.00 | 0.00 | 0.00 | 86 | 1016.0 |
| 20260505033600 | 9 | 228 | 0.0 | 3.2 | 0.00 | 0.00 | 0.00 | 86 | 1016.1 |
| 20260505032058 | 9 | 228 | 0.0 | 1.6 | 0.00 | 0.00 | 0.00 | 85 | 1016.1 |
| 20260505030559 | 9 | 228 | 1.6 | 4.8 | 0.00 | 0.00 | 0.00 | 85 | 1016.1 |
| 20260505025054 | 10 | 228 | 1.6 | 3.2 | 0.00 | 0.00 | 0.00 | 86 | 1016.1 |
| 20260505023555 | 10 | 228 | 0.0 | 0.0 | 0.00 | 0.00 | 0.00 | 86 | 1016.1 |
| 20260505022055 | 10 | 228 | 0.0 | 3.2 | 0.00 | 0.00 | 0.00 | 86 | 1016.2 |
| 20260505020554 | 10 | 228 | 0.0 | 1.6 | 0.00 | 0.00 | 0.00 | 86 | 1016.3 |
| 20260505015055 | 10 | 228 | 0.0 | 3.2 | 0.00 | 0.00 | 0.00 | 86 | 1016.4 |
| 20260505013553 | 10 | 228 | 0.0 | 1.6 | 0.00 | 0.00 | 0.00 | 86 | 1016.5 |
| 20260505012051 | 10 | 228 | 0.0 | 4.8 | 0.00 | 0.00 | 0.00 | 86 | 1016.6 |
| 20260505010548 | 10 | 228 | 3.2 | 4.8 | 0.00 | 0.00 | 0.00 | 86 | 1016.6 |
| 20260505005045 | 10 | 228 | 3.2 | 4.8 | 0.00 | 0.00 | 0.00 | 86 | 1016.6 |
| 20260505004247 | 9 | 228 | 1.6 | 6.4 | 0.00 | 0.00 | 0.00 | 86 | 1016.6 |
| 20260505002040 | 9 | 228 | 0.0 | 1.6 | 0.00 | 0.00 | 0.00 | 86 | 1016.7 |
| 20260505000538 | 10 | 228 | 3.2 | 8.0 | 0.00 | 0.00 | 0.00 | 86 | 1016.7 |
| 20260504235036 | 10 | 228 | 4.8 | 8.0 | 0.00 | 0.00 | 0.00 | 85 | 1016.6 |
| 20260504233536 | 10 | 242 | 4.8 | 6.4 | 0.00 | 0.00 | 0.00 | 85 | 1016.7 |
| 20260504232036 | 10 | 243 | 6.4 | 8.0 | 0.00 | 0.00 | 0.00 | 84 | 1016.7 |
| 20260504230536 | 10 | 244 | 4.8 | 8.0 | 0.00 | 0.00 | 0.00 | 84 | 1016.8 |
| 20260504225037 | 10 | 244 | 4.8 | 8.0 | 0.00 | 0.00 | 0.00 | 84 | 1016.7 |
| 20260504224226 | 10 | 244 | 3.2 | 8.0 | 0.00 | 0.00 | 0.00 | 83 | 1016.9 |
| 20260504222032 | 10 | 244 | 6.4 | 12.9 | 0.00 | 0.00 | 0.00 | 82 | 1016.8 |
| 20260504220529 | 11 | 261 | 6.4 | 12.9 | 0.00 | 0.00 | 0.00 | 82 | 1016.8 |
| 20260504215029 | 11 | 285 | 6.4 | 14.5 | 0.00 | 0.00 | 0.00 | 81 | 1017.0 |
| 20260504214233 | 11 | 288 | 9.7 | 17.7 | 0.00 | 0.00 | 0.00 | 80 | 1017.0 |
| 20260504212028 | 11 | 287 | 9.7 | 19.3 | 0.00 | 0.00 | 0.00 | 80 | 1017.0 |
| 20260504210527 | 11 | 263 | 9.7 | 20.9 | 0.00 | 0.00 | 0.00 | 80 | 1016.9 |
| 20260504205027 | 11 | 253 | 9.7 | 22.5 | 0.00 | 0.00 | 0.00 | 80 | 1016.8 |
| 20260504203527 | 11 | 280 | 9.7 | 20.9 | 0.00 | 0.00 | 0.00 | 78 | 1016.6 |
| 20260504202026 | 11 | 248 | 11.3 | 22.5 | 0.00 | 0.00 | 0.00 | 77 | 1016.5 |
| 20260504200526 | 11 | 250 | 11.3 | 22.5 | 0.00 | 0.00 | 0.00 | 77 | 1016.4 |
| 20260504195026 | 11 | 242 | 11.3 | 19.3 | 0.00 | 0.00 | 0.00 | 77 | 1016.2 |
| 20260504193526 | 12 | 251 | 11.3 | 22.5 | 0.00 | 0.00 | 0.00 | 77 | 1016.1 |
| 20260504192026 | 12 | 244 | 14.5 | 24.1 | 0.00 | 0.00 | 0.00 | 74 | 1016.0 |
| 20260504190526 | 12 | 261 | 12.9 | 25.7 | 0.00 | 0.00 | 0.00 | 72 | 1015.9 |
| 20260504185027 | 13 | 274 | 17.7 | 30.6 | 0.00 | 0.00 | 0.00 | 69 | 1015.8 |